Find CUTE

NORAD ID: 49263 Int'l Des: 2021-088 Owner: UCO Country: US operational
LEOCIRCULARRETROGRADE

Current View

Loading 3D Globe...

About CUTE

Description loading...

Upcoming Passes

Passes for default location (London). Set your location on the main map for personalized predictions.

Altitude History

Loading altitude history...

Two-Line Element Set

1 49263U 21088D 26151.26080787 .00409312 00000-0 16175-2 0 9997
2 49263 97.4204 248.9934 0005804 260.8864 99.1750 15.85766127259861
Epoch: May 31, 2026 • Age: 13 hours

Current Status

Altitude 320.2 km
Velocity 7.72 km/s
Sub-Earth Point 37.86°N, 98.5°W
Launch Date Sep 27, 2021
Age 4.6 years
Type other

Technical Details

Classification Payload
Mass 10.00 kg
Dry Mass 10.00 kg
Total Mass 10.00 kg
Length 0.30 m
Diameter 0.20 m
Span 1.00 m
Shape Box + 2 pan
Manufacturer UCO
Bus Type Cubesat 6U
Phase Status In Orbit
Owner/State UCO/US

Most Searched